Orbital Elements at Epoch 2459000.5 (2020-May-31.0) TDB
Reference: JPL 31 (heliocentric ecliptic J2000)
Element | Value | Uncertainty (1-sigma) | Units |
e | .1504322491074757 | 4.2299e-08 | |
a | 2.442844926874401 | 1.2388e-08 | au |
q | 2.075362270303898 | 1.0667e-07 | au |
i | 2.995803396988669 | 4.3995e-06 | deg |
node | 226.7860766521497 | 9.7904e-05 | deg |
peri | 356.5221207513565 | 9.9361e-05 | deg |
M | 328.2559084446073 | 1.8971e-05 | deg |
tp | 2459123.470992163227 (2020-Sep-30.97099216) | 7.3841e-05 | TDB |
period | 1394.576282062203 3.82 | 1.0609e-05 2.905e-08 | d yr |
n | .2581429245789673 | 1.9637e-09 | deg/d |
Q | 2.810327583444904 | 1.4252e-08 | au |
|
| | Orbit Determination Parameters
Additional Information
|